EW0395 Weather Reports


Display with metric or nautical units.
time (UTC)temp
F
wind
direction
speed
MPH
gust
MPH
rain 1hr
in
rain 24hr
in
rain mn
in
humidity
%
barometer
mb
20260508061532 30 0 0.0 0.0 0.00 0.01 0.00 88 1007.9
20260508060031 31 0 0.0 1.0 0.00 0.01 0.00 87 1007.5
20260508054533 31 0 0.0 0.0 0.00 0.01 0.00 87 1008.0
20260508053032 31 0 0.0 0.0 0.00 0.01 0.00 87 1008.2
20260508051530 31 0 0.0 0.0 0.00 0.01 0.00 86 1008.4
20260508050041 31 0 0.0 0.0 0.00 0.01 0.00 85 1008.6
20260508044534 32 0 0.0 0.0 0.00 0.01 0.00 85 1008.6
20260508043036 32 0 0.0 1.0 0.00 0.01 0.00 85 1008.6
20260508041536 33 0 0.0 0.0 0.00 0.01 0.00 84 1008.7
20260508040035 33 0 0.0 0.0 0.00 0.01 0.00 82 1008.7
20260508034535 34 0 0.0 0.0 0.00 0.01 0.01 82 1008.7
20260508033034 35 0 0.0 0.0 0.00 0.01 0.01 80 1008.6
20260508031533 35 0 0.0 0.0 0.00 0.01 0.01 80 1008.7
20260508030034 36 0 0.0 1.0 0.00 0.01 0.01 78 1008.7
20260508024541 37 0 0.0 0.0 0.00 0.06 0.01 78 1008.7
20260508023037 38 0 0.0 0.0 0.00 0.06 0.01 78 1008.7
20260508021535 38 0 0.0 1.0 0.00 0.06 0.01 76 1008.8
20260508020031 39 0 0.0 1.0 0.00 0.06 0.01 75 1008.5
20260508014534 40 0 0.0 0.0 0.00 0.13 0.01 73 1008.3
20260508013032 41 0 0.0 0.0 0.00 0.13 0.01 63 1008.0
20260508011548 41 0 0.0 0.0 0.00 0.13 0.01 62 1008.0
20260508010036 42 0 0.0 0.0 0.00 0.13 0.01 58 1007.8
20260508004545 44 0 0.0 0.0 0.00 0.15 0.01 53 1007.6
20260508003038 45 0 0.0 1.0 0.00 0.15 0.01 54 1007.4
20260508001538 45 0 0.0 2.0 0.00 0.15 0.01 52 1007.1
20260508000031 46 0 0.0 1.0 0.00 0.15 0.01 53 1007.0
20260507234532 47 0 0.0 1.0 0.00 0.30 0.01 52 1006.7
20260507233032 48 266 0.0 3.0 0.00 0.30 0.01 50 1006.7
20260507231536 49 220 0.0 1.0 0.00 0.30 0.01 47 1006.5
20260507230031 50 285 1.0 3.0 0.00 0.30 0.01 45 1006.6
20260507224539 51 254 0.0 1.0 0.00 0.31 0.01 45 1006.6
20260507223034 52 0 0.0 5.0 0.00 0.31 0.01 44 1006.5
20260507221534 53 267 1.0 5.0 0.00 0.31 0.01 41 1006.4
20260507220035 53 315 1.0 4.0 0.00 0.31 0.01 39 1006.3
20260507214534 53 0 0.0 4.0 0.00 0.31 0.01 39 1006.4
20260507213033 53 264 1.0 3.0 0.00 0.31 0.01 39 1006.3
20260507211535 54 34 1.0 3.0 0.00 0.31 0.01 39 1006.3
20260507210039 55 304 1.0 5.0 0.00 0.31 0.01 38 1006.1
20260507204543 54 0 0.0 3.0 0.00 0.32 0.01 37 1006.2
20260507203034 56 291 1.0 6.0 0.00 0.32 0.01 36 1006.3
20260507201537 57 121 0.0 3.0 0.00 0.32 0.01 37 1006.1
20260507200036 58 280 2.0 5.0 0.00 0.32 0.01 35 1006.1
20260507194536 55 256 1.0 4.0 0.00 0.35 0.01 38 1006.3
20260507193034 55 229 1.0 7.0 0.00 0.35 0.01 41 1006.4
20260507191532 57 275 2.0 6.0 0.00 0.35 0.01 36 1006.6
20260507190039 57 259 1.0 4.0 0.00 0.35 0.01 38 1006.6
20260507184537 55 229 1.0 5.0 0.00 0.48 0.01 41 1006.7
20260507183037 54 351 2.0 4.0 0.00 0.48 0.01 40 1007.1
20260507181535 56 300 2.0 7.0 0.00 0.48 0.01 38 1007.0
20260507180032 55 246 1.0 5.0 0.00 0.48 0.01 40 1007.1
20260507174536 55 236 1.0 5.0 0.00 0.64 0.01 42 1007.2
20260507173033 55 243 1.0 4.0 0.00 0.64 0.01 40 1007.1
20260507171534 56 295 2.0 6.0 0.00 0.64 0.01 40 1007.1
20260507170035 57 262 2.0 5.0 0.00 0.64 0.01 42 1007.2
20260507164530 56 253 3.0 6.0 0.00 0.68 0.01 44 1007.6
20260507163033 56 248 2.0 6.0 0.00 0.68 0.01 44 1007.8
20260507161531 56 248 1.0 5.0 0.00 0.68 0.01 47 1007.9
20260507160034 55 223 1.0 5.0 0.00 0.68 0.01 50 1008.0
20260507154539 54 196 2.0 4.0 0.00 0.68 0.01 52 1008.3
20260507153030 53 290 1.0 4.0 0.00 0.68 0.01 55 1008.2
20260507151530 51 317 0.0 6.0 0.00 0.68 0.01 58 1008.2
20260507150033 51 0 1.0 3.0 0.00 0.68 0.01 60 1008.5
20260507144534 52 281 1.0 5.0 0.00 0.68 0.01 58 1008.5
20260507143035 52 228 1.0 6.0 0.00 0.68 0.01 66 1008.4
20260507141536 51 344 1.0 6.0 0.00 0.68 0.01 64 1008.5
20260507140048 49 284 1.0 3.0 0.00 0.68 0.01 73 1008.4
20260507134535 47 271 1.0 3.0 0.00 0.68 0.01 85 1008.5
20260507133035 44 259 0.0 1.0 0.00 0.68 0.01 93 1008.3
20260507131535 44 0 0.0 2.0 0.00 0.68 0.01 93 1008.5
20260507130048 44 262 0.0 2.0 0.00 0.68 0.01 93 1008.5
20260507124536 46 0 0.0 1.0 0.00 0.68 0.01 96 1008.3
20260507123047 44 0 0.0 1.0 0.00 0.68 0.01 98 1008.3
20260507121541 43 0 0.0 1.0 0.00 0.68 0.01 98 1008.2
20260507120034 43 196 0.0 0.0 0.00 0.68 0.01 98 1008.0
20260507114530 42 0 0.0 1.0 0.00 0.68 0.01 99 1008.2
20260507113035 41 0 0.0 1.0 0.00 0.68 0.01 99 1008.1
20260507111533 40 0 0.0 1.0 0.00 0.68 0.01 99 1008.2
20260507110031 39 0 0.0 1.0 0.00 0.68 0.01 99 1008.2
20260507104531 38 0 0.0 0.0 0.01 0.68 0.01 99 1008.0
20260507103032 38 0 0.0 0.0 0.01 0.68 0.01 99 1007.9
20260507101537 38 0 0.0 1.0 0.01 0.68 0.01 99 1007.7
20260507100037 38 0 0.0 0.0 0.00 0.67 0.00 98 1007.9
20260507094534 38 0 0.0 0.0 0.00 0.67 0.00 98 1007.8
20260507093038 39 0 0.0 0.0 0.00 0.67 0.00 98 1008.0
20260507091532 39 0 0.0 1.0 0.00 0.67 0.00 98 1008.2
20260507090032 39 0 0.0 1.0 0.00 0.67 0.00 98 1008.2
20260507084531 40 0 0.0 1.0 0.00 0.67 0.00 98 1007.8
20260507083038 40 0 0.0 1.0 0.00 0.67 0.00 98 1007.9
20260507081531 40 0 0.0 0.0 0.00 0.67 0.00 98 1007.9
20260507080033 40 0 0.0 1.0 0.00 0.67 0.00 98 1007.9
20260507074532 40 0 0.0 0.0 0.00 0.67 0.00 98 1008.0
20260507073030 41 0 0.0 1.0 0.00 0.67 0.00 98 1007.8
20260507071551 41 0 0.0 0.0 0.00 0.67 0.00 98 1007.7
20260507070031 41 0 0.0 0.0 0.00 0.67 0.00 97 1007.3
20260507064533 41 0 0.0 0.0 0.00 0.67 0.00 98 1007.2
20260507063035 42 0 0.0 0.0 0.00 0.67 0.00 98 1007.6